SCP
1 1 2 3 2 2 1 1 1 1 0 1 1 1 1 1 1 1 1 1 1 1 1 1 1 1 1 1 1 1 1 1 1 1 1 1 1 1 1 1 0 1 1
1 1 2 2 2 1 1 1 1 1 0 0 1 1 1 1 1 1 1 1 1 1 1 1 1 1 1 1 1 1 1 1 1 1 1 1 1 1 1 1 1 1 1
1 1 2 2 2 1 1 1 1 1 1 0 0 1 1 1 1 1 1 1 1 1 1 1 1 1 1 2 2 2 1 1 1 1 1 1 1 1 1 1 1 1 1
2 1 2 2 2 1 1 1 1 1 1 0 0 1 1 1 1 1 1 1 1 1 1 1 1 1 1 1 2 2 1 1 1 1 1 1 1 1 1 1 1 1 1
2 2 2 2 2 1 1 1 1 1 1 1 1 1 1 1 1 1 1 1 1 1 1 1 1 1 1 1 1 1 1 1 1 1 1 1 1 1 1 1 1 1 1
1 1 2 2 2 2 1 1 1 1 1 1 1 1 1 1 1 1 1 1 1 1 1 1 1 1 1 1 1 1 1 1 1 1 1 1 1 1 1 1 1 1 1
1 1 1 2 2 2 1 1 1 1 1 1 1 1 1 1 1 1 1 1 1 1 1 1 1 1 1 1 1 1 1 1 1 1 1 1 1 1 1 1 1 1 1
1 1 1 2 2 2 2 1 1 1 1 1 1 1 1 1 1 1 2 1 1 1 1 1 1 1 1 1 1 1 1 1 1 1 1 1 1 1 1 2 1 1 1
1 1 1 1 1 2 2 2 2 1 1 1 1 1 1 1 1 1 1 1 1 1 1 1 1 1 1 1 1 1 1 1 1 1 1 1 2 2 2 1 1 2 2
2 1 1 1 1 1 2 2 2 1 1 1 0 0 0 1 1 1 1 1 1 1 1 1 1 1 1 1 1 1 1 1 1 1 1 1 2 2 2 2 2 2 2
2 2 1 1 1 1 1 1 1 1 1 1 0 0 0 0 0 0 0 1 1 1 1 1 1 1 1 1 1 1 1 1 1 1 1 1 1 2 2 2 2 2 2
2 2 2 1 1 1 1 1 1 1 0 0 0 0 0 0 0 0 0 1 1 1 1 1 1 1 1 1 1 1 1 1 1 1 1 1 1 1 2 2 2 2 1
2 2 1 1 1 1 1 1 1 0 0 0 0 0 0 0 0 0 1 1 1 1 1 1 1 1 1 1 1 1 1 1 1 1 1 1 1 1 1 2 1 1 1
1 2 2 2 2 1 1 1 1 1 1 0 0 0 1 1 1 1 0 0 0 1 1 1 1 1 1 1 1 1 1 1 1 1 1 1 1 1 2 2 1 1 1
2 2 2 2 2 2 2 1 1 1 1 1 1 1 1 1 1 0 0 0 0 1 1 1 1 0 1 1 1 1 1 1 1 1 1 2 2 2 2 2 2 1 1
3 4 4 4 3 3 2 2 2 2 2 1 1 1 1 1 1 0 0 0 0 0 0 1 1 0 1 1 1 1 1 1 1 1 1 2 2 2 2 2 2 2 2
5 5 6 6 5 4 3 3 3 3 2 2 2 2 1 1 1 1 0 1 1 1 1 1 1 0 1 1 1 1 1 1 1 1 1 1 1 2 2 2 2 2 2
6 6 6 6 5 4 4 3 4 4 3 3 2 2 1 1 1 1 1 1 1 1 1 1 1 1 1 1 1 1 1 1 1 1 1 1 1 1 1 1 1 2 2
5 5 5 5 6 5 5 5 4 4 4 3 2 2 2 2 1 1 1 1 1 1 1 1 1 1 1 1 1 2 2 1 1 1 1 1 1 0 0 1 1 1 1
4 5 6 6 7 6 6 6 5 4 3 2 1 1 2 2 2 2 2 2 1 1 1 1 1 1 1 1 1 1 1 1 1 1 1 1 1 0 0 1 1 1 1
4 5 7 8 7 6 7 7 5 3 1 1 1 1 1 1 2 2 2 2 2 2 2 1 1 1 1 1 2 1 1 1 1 1 1 1 1 1 1 1 1 1 1
4 5 6 6 6 5 6 6 4 2 1 1 1 1 1 1 1 1 1 2 2 2 2 2 2 2 2 2 3 2 1 1 1 1 1 1 1 1 1 1 1 1 1
3 3 3 4 4 4 5 4 3 1 1 1 1 1 1 1 1 1 1 2 2 2 2 2 2 3 3 3 3 3 2 2 2 1 1 1 1 1 1 1 1 1 1
3 3 3 3 4 4 5 4 2 1 1 1 2 2 2 2 2 1 2 2 2 3 3 3 3 4 4 4 4 4 3 3 3 2 1 1 1 1 1 1 1 1 1
3 4 4 5 5 5 5 4 3 2 2 2 2 3 3 3 3 2 2 2 3 3 4 4 4 5 5 5 5 4 4 3 3 3 2 1 1 1 0 0 1 1 1
4 4 5 6 6 6 6 5 3 2 2 3 3 3 3 4 3 3 2 2 3 3 4 5 5 5 6 6 5 4 3 3 3 3 2 1 1 0 0 0 0 0 1
Wind_Speed
4 5 12 12 12 12 11 11 10 10 11 11 10 10 10 10 10 9 8 8 8 7 8 7 7 8 8 8 8 8 8 8 8 8 8 9 10 11 11 11 11 8 13
9 8 13 13 12 12 11 11 10 10 10 10 10 10 9 9 9 9 8 8 7 7 7 7 7 7 7 7 7 7 7 7 7 7 8 8 9 10 10 11 11 8 13
11 8 11 13 13 12 11 10 10 10 10 10 10 9 9 9 8 8 7 7 7 7 7 6 6 6 6 6 6 6 6 5 5 7 7 4 6 10 11 12 13 13 12
12 8 9 14 13 12 11 10 10 10 10 10 9 9 8 8 8 7 7 6 6 6 6 6 6 6 5 6 6 6 5 5 5 6 3 3 4 9 10 12 13 12 12
10 7 10 14 13 12 12 11 10 10 10 9 9 9 8 7 7 6 6 5 5 5 5 5 5 5 5 5 5 5 5 5 5 4 3 3 3 9 11 13 13 12 11
9 7 10 15 13 12 11 11 10 10 9 9 9 8 8 7 7 6 5 5 5 6 5 5 5 4 4 5 5 5 5 4 4 3 3 4 4 9 11 12 13 12 11
10 7 9 14 13 12 11 10 10 9 9 8 8 7 7 6 6 5 5 6 6 6 5 5 4 4 4 4 4 5 4 4 4 3 3 3 5 10 11 12 13 12 11
12 8 8 13 13 12 11 10 9 9 8 7 6 6 6 5 5 5 5 5 5 4 4 4 3 2 3 4 4 4 4 4 4 4 4 4 8 10 11 12 12 11 11
11 8 6 6 8 11 10 9 9 8 7 6 6 5 5 5 4 4 4 3 3 3 3 2 1 2 2 3 4 4 4 5 3 3 4 4 9 11 11 11 11 10 10
8 7 6 5 4 4 5 8 8 7 6 6 5 5 5 4 3 3 3 3 2 2 2 1 1 1 1 2 3 4 4 4 3 3 2 5 10 10 10 10 10 10 9
8 5 6 5 4 4 4 6 6 6 5 5 4 4 3 1 1 1 2 3 3 2 2 1 1 1 0 1 2 4 3 2 3 2 2 7 9 9 9 10 10 9 9
9 7 5 6 5 4 4 3 2 3 2 2 1 1 1 1 1 1 2 3 3 2 2 2 2 2 0 1 2 2 1 3 3 2 3 8 9 9 8 9 9 9 8
10 9 7 6 6 5 3 3 2 1 1 1 1 1 1 1 0 0 0 1 1 1 1 2 1 1 1 1 1 2 2 2 2 2 3 8 8 8 8 8 8 8 8
9 9 8 7 6 5 4 3 3 2 2 2 2 2 1 1 1 1 0 0 0 0 0 0 0 1 1 2 3 3 2 2 2 2 3 8 7 8 9 8 8 8 8
9 9 8 7 6 5 4 2 3 2 2 2 2 1 2 1 1 1 1 0 0 0 1 0 0 1 2 2 2 3 2 3 3 3 2 7 8 8 8 9 9 8 8
8 8 8 7 6 5 4 3 2 2 2 1 1 2 2 2 1 1 1 1 0 0 1 1 1 2 1 2 2 2 3 3 3 3 2 4 7 8 8 8 9 8 8
8 7 8 8 6 5 4 3 3 2 2 2 1 1 1 1 1 1 1 1 1 0 1 1 1 2 2 2 2 1 2 2 3 3 3 2 3 6 7 7 7 7 7
8 7 7 7 7 5 4 3 2 2 2 1 1 1 1 1 1 1 1 1 1 1 1 2 2 2 1 1 1 1 1 1 2 2 2 2 2 2 4 6 6 6 6
9 8 6 6 6 5 4 3 3 2 2 1 1 1 1 1 1 1 1 0 1 1 1 1 2 2 1 1 1 1 1 1 1 2 2 2 2 2 1 4 6 5 5
8 8 7 6 5 4 3 2 2 2 1 1 1 1 0 0 1 1 1 1 1 1 1 1 2 1 1 1 1 2 1 0 0 1 2 2 2 2 2 2 2 3 6
7 7 6 6 4 4 2 2 2 1 1 0 0 0 0 0 1 1 1 1 1 2 2 1 2 2 1 1 2 2 2 2 1 0 1 1 2 2 2 2 1 1 2
8 7 7 6 5 4 3 3 2 2 1 1 1 0 0 1 0 1 1 1 1 1 1 1 2 1 1 1 2 2 1 3 2 1 0 1 2 2 2 3 2 2 2
8 8 7 6 6 5 4 2 2 1 1 0 0 0 1 1 1 1 2 2 1 1 1 1 2 2 1 0 1 3 3 2 1 2 0 1 1 1 2 2 3 3 3
8 8 7 7 6 5 4 4 4 3 2 3 2 2 1 1 1 1 2 2 2 1 1 2 2 2 2 1 1 0 2 3 2 0 1 1 1 1 1 2 2 2 2
7 7 7 6 5 5 5 5 5 3 3 1 1 1 1 1 2 2 2 2 2 1 1 1 1 2 2 2 1 1 1 1 2 2 1 1 1 0 1 1 2 2 2
5 6 6 6 5 5 5 4 5 4 3 2 2 2 2 1 2 2 2 2 2 2 2 1 1 2 1 2 1 2 2 2 1 2 2 1 1 1 1 1 1 2 2
Wind_Direction
154 160 135 124 118 114 109 104 100 97 96 94 92 89 88 88 91 94 99 106 109 110 110 110 112 115 110 108 108 111 114 120 132 135 140 147 147 144 141 142 137 130 127
152 153 136 127 123 119 114 108 105 102 100 98 95 91 90 89 89 91 95 105 111 112 113 112 113 115 116 114 109 110 113 116 121 127 133 143 147 145 140 141 137 131 128
142 146 139 131 128 124 119 114 110 106 105 101 98 94 93 92 90 90 91 99 110 115 115 111 113 115 113 112 109 107 113 116 118 128 129 124 136 138 139 139 135 132 130
140 143 140 135 131 127 123 117 113 109 108 105 102 97 94 92 91 90 90 93 102 111 115 113 114 115 113 112 108 109 116 121 123 130 127 135 143 141 139 140 138 137 135
137 141 146 138 135 131 128 122 117 112 108 106 103 98 95 93 93 93 93 95 103 110 113 115 114 113 113 114 111 109 113 119 125 133 126 133 134 140 140 141 141 140 138
139 145 149 141 139 135 132 126 121 116 113 109 106 103 100 98 96 94 93 96 111 109 109 110 109 108 110 114 111 113 116 122 121 116 127 136 134 143 144 146 144 141 139
142 148 150 144 142 140 135 130 127 123 120 117 113 110 109 107 101 97 90 91 106 106 109 110 104 107 112 114 111 113 114 122 113 111 118 133 144 148 149 148 144 142 141
145 149 149 148 145 144 140 137 134 130 127 126 123 119 118 116 114 111 106 97 103 106 107 111 103 101 118 122 120 121 117 119 120 121 129 143 149 149 150 147 143 144 144
142 145 146 150 148 148 146 143 142 141 138 137 134 128 124 127 130 129 127 122 120 122 110 114 97 100 120 133 134 133 133 132 120 126 144 150 151 149 147 146 147 150 150
137 143 145 146 147 149 150 152 153 153 151 148 146 142 140 136 137 145 145 152 155 151 133 127 52 31 111 133 142 147 143 137 116 122 126 149 151 148 150 153 156 156 155
138 144 147 149 150 149 158 164 159 157 155 153 153 152 151 140 151 162 167 172 185 186 203 240 282 313 306 120 153 158 152 123 127 131 132 154 155 154 157 160 161 160 160
155 159 156 157 157 159 165 150 152 155 153 147 145 145 139 138 199 186 189 187 204 218 236 262 268 301 254 102 124 139 121 131 136 143 152 162 161 161 160 161 164 167 170
162 162 164 165 165 165 156 151 161 151 149 165 182 181 167 155 179 196 266 278 276 271 300 308 306 342 101 118 118 118 131 136 137 153 162 167 164 165 164 163 166 172 177
156 162 164 166 161 163 154 157 161 159 162 175 194 190 168 160 170 195 191 245 265 330 64 359 103 82 100 117 137 135 135 133 143 151 165 172 171 170 171 170 178 178 178
155 161 162 157 158 159 147 154 152 162 165 175 175 187 172 170 185 187 185 186 205 152 146 175 111 81 81 102 131 134 132 142 153 159 164 178 180 179 182 181 179 181 184
153 157 156 153 154 144 143 149 151 158 152 148 165 186 180 166 158 159 165 179 213 197 182 151 127 101 97 106 118 126 132 141 148 153 158 173 175 176 179 179 180 182 186
151 152 152 150 143 139 144 153 147 150 144 142 165 178 171 150 140 145 143 166 231 190 138 112 96 83 81 87 89 107 126 133 138 142 146 151 162 171 174 176 178 177 180
146 146 153 148 142 141 141 140 135 141 141 150 146 128 144 146 144 136 134 188 211 125 116 115 109 93 74 70 77 97 122 129 137 141 139 139 139 154 172 174 174 173 178
148 146 142 134 138 141 137 125 125 126 134 150 142 131 143 143 131 130 139 161 131 115 117 131 109 114 111 78 69 82 99 129 154 155 152 158 155 154 169 174 177 178 179
145 141 137 133 133 130 120 98 90 90 107 125 135 142 130 146 126 125 130 119 126 115 109 112 115 103 128 133 85 63 44 64 167 165 174 167 164 173 171 181 184 182 179
139 137 139 140 144 135 127 131 132 154 171 163 190 149 144 138 146 136 132 126 130 141 164 153 127 110 108 109 80 31 4 12 14 192 162 151 167 186 168 175 166 171 174
151 150 151 155 158 161 166 170 171 171 188 199 222 173 197 159 180 164 155 149 141 135 128 130 128 132 174 138 130 108 18 358 346 342 142 163 182 171 170 175 161 165 160
162 165 166 169 167 170 163 140 120 80 53 25 326 267 254 188 170 175 163 164 167 158 177 186 163 158 181 246 150 145 151 202 282 337 327 164 159 154 173 163 158 165 164
178 170 166 167 168 171 160 159 157 161 186 210 212 222 242 225 210 188 176 170 174 167 188 209 172 168 159 200 289 139 156 156 153 171 344 5 104 146 161 154 161 171 167
176 171 168 165 170 175 173 175 173 182 199 200 195 197 228 246 235 210 181 174 176 180 186 177 146 153 163 169 159 132 88 78 111 140 194 328 358 305 178 170 166 173 171
161 163 163 164 176 179 177 178 178 180 180 166 183 198 221 241 247 239 182 173 185 189 186 180 167 153 163 145 130 123 137 145 164 150 163 194 268 294 272 202 175 178 173